087  
ASUS41 KBTV 211530  
RWRBTV  
VERMONT REGIONAL WEATHER ROUNDUP  
NATIONAL WEATHER SERVICE BURLINGTON VT  
1100 AM EDT THU SEP 21 2017  
 
NOTE: "FAIR" INDICATES FEW OR NO CLOUDS BELOW 12,000 FEET WITH NO  
SIGNIFICANT WEATHER AND/OR S TO VISIBILITY
.  
 
* THESE REPORTS ARE NOT UNDER NWS QUALITY CONTROL AND/OR DO NOT  
REPORT WEATHER SUCH AS PRECIPITATION AND FOG.
 
 
VTZ001>019-211600-  
_____VERMONT_____  
 
 
CITY SKY/WX TMP DP RH WIND PRES REMARKS
 
BURLINGTON PTSUNNY 67 60 78 NE6 30.13S  
MONTPELIER CLOUDY 64 61 90 VRB3 30.18R  
MORRISVILLE SUNNY 69 59 70 N5 30.14F  
ST. JOHNSBURY* N/A 70 58 65 MISG 30.11S  
LYNDONVILLE* FAIR 71 56 57 CALM 30.15S  
MIDDLEBURY* CLOUDY 67 62 83 NW7 30.12S  
RUTLAND* CLOUDY 68 63 83 CALM 30.11F  
SPRINGFIELD MOSUNNY 73 58 59 VRB5 30.10S  
HIGHGATE* FAIR 66 58 74 N6 30.15S  
NEWPORT* FAIR 66 57 73 N10 30.17R  
BENNINGTON CLOUDY 70 62 76 VRB3 30.09F  
SUTTON* N/A 73 N/A N/A MISG N/A  
ISLAND POND* N/A 72 N/A N/A E5 N/A  
GALLUP MILLS* N/A 68 N/A N/A MISG N/A  
UNION VILLAGE* N/A 72 N/A N/A MISG N/A  
MT. MANSFIELD* N/A 68 N/A N/A SW3 N/A  
 
_____LAKE CHAMPLAIN_____  
 
 
CITY SKY/WX TMP DP RH WIND PRES REMARKS
 
BURTON ISLAND* N/A 66 57 72 N1 N/A  
COLCHESTER RF* N/A 64 57 77 N12 N/A  
DIAMOND ISL* N/A 64 57 77 N21 N/A  
 

 
 
NYZ007-026>031-035-052-083-087-211600-  
_____NORTHERN NEW YORK_____  
 
 
CITY SKY/WX TMP DP RH WIND PRES REMARKS
 
PLATTSBURGH SUNNY 71 55 56 N9 30.13S  
SARANAC LAKE SUNNY 71 57 61 E10 30.15S  
MASSENA SUNNY 70 57 63 E10 30.15F  
OGDENSBURG* FAIR 73 61 65 N3 30.14F  
POTSDAM* SUNNY 70 66 88 E6 30.14F  
STARK FALLS* N/A 73 N/A N/A NE5 N/A  
WATERTOWN SUNNY 73 66 78 NE8 30.11S  
FT DRUM SUNNY 69 63 81 N6 30.12F  
ALBANY PTSUNNY 71 62 73 NE7 30.09S  
GLENS FALLS MOSUNNY 70 62 76 NE8 30.09F  
 

 
NHZ002-005-011-211600-  
_____NEW HAMPSHIRE_____  
 
 
CITY SKY/WX TMP DP RH WIND PRES REMARKS
 
LEBANON MOSUNNY 73 60 63 N9 30.11S  
KEENE PTSUNNY 75 61 61 N9 30.07S  
WHITEFIELD MOSUNNY 70 56 61 NE6 30.14R  
 

 
 
_____REGIONAL QUEBEC LOCATIONS_____  
 
 
CITY SKY/WX TMP DP RH WIND PRES REMARKS
 
MONTREAL MOSUNNY 70 55 60 N10 30.15F  
QUEBEC CITY MOSUNNY 66 52 59 E9 30.21S  
SHERBROOKE SUNNY 68 52 56 NE6 30.16S  
 
_____REGIONAL ONTARIO LOCATIONS_____  
 
 
CITY SKY/WX TMP DP RH WIND PRES REMARKS
 
OTTAWA MOSUNNY 70 57 64 E10 30.16R  
 
______KEY______  
VSB - VISIBILITY IN MILES  
WCI - WIND CHILL INDEX  
HX - HEAT INDEX  

 
NNNN  
 
 
CLICK HERE TO GO TO PREVIOUS BULLETINS.

The Nexlab VT Page
The Nexlab NY Page Main Text Page